GIA176 WIII-WIBB

Flight info

Callsign GIA176
Flight time 1h 20m
Altitude 36000
Route GOMEL T10 OVSET
Aircraft B738/M-SDE2E3FGHIRWY/LB1

Departure

Time 2026-04-23 07:06
Airport Soekarno-Hatta International Airport (WIII)

Arrival

Time 2026-04-23 08:26
Airport Sultan Syarif Kasim II International Airport / Roesmin Nurjadin AFB (WIBB)
Time Latitude Longitude Altitude Speed Heading
2026-04-23 06:52 -6.11709 106.66601 37 ft 0 kts 132°
2026-04-23 06:54 -6.11708 106.66599 36 ft 3 kts 133°
2026-04-23 06:54 -6.11696 106.66588 34 ft 2 kts 154°
2026-04-23 06:54 -6.11678 106.66583 35 ft 3 kts 161°
2026-04-23 06:54 -6.11654 106.66573 35 ft 4 kts 158°
2026-04-23 06:55 -6.11629 106.66563 36 ft 4 kts 159°
2026-04-23 06:55 -6.11614 106.66559 37 ft 2 kts 192°
2026-04-23 06:55 -6.11605 106.66564 35 ft 2 kts 237°
2026-04-23 06:55 -6.11599 106.66574 35 ft 2 kts 245°
2026-04-23 06:56 -6.11596 106.66581 37 ft 0 kts 247°
2026-04-23 06:57 -6.11597 106.66579 37 ft 1 kts 247°
2026-04-23 06:57 -6.11604 106.66563 35 ft 4 kts 247°
2026-04-23 06:57 -6.11618 106.66528 37 ft 7 kts 248°
2026-04-23 06:57 -6.11638 106.66476 37 ft 9 kts 248°
2026-04-23 06:58 -6.11635 106.66418 37 ft 9 kts 303°
2026-04-23 06:58 -6.11585 106.66388 37 ft 9 kts 337°
2026-04-23 06:58 -6.11525 106.66363 37 ft 10 kts 337°
2026-04-23 06:58 -6.11453 106.66337 37 ft 12 kts 340°
2026-04-23 06:59 -6.11382 106.66308 37 ft 10 kts 336°
2026-04-23 06:59 -6.11351 106.66252 38 ft 10 kts 261°
2026-04-23 06:59 -6.11376 106.66189 38 ft 11 kts 248°
2026-04-23 06:59 -6.11407 106.66110 38 ft 14 kts 248°
2026-04-23 07:00 -6.11448 106.66007 37 ft 18 kts 248°
2026-04-23 07:00 -6.11498 106.65881 36 ft 21 kts 248°
2026-04-23 07:00 -6.11556 106.65735 36 ft 24 kts 248°
2026-04-23 07:00 -6.11621 106.65574 36 ft 26 kts 248°
2026-04-23 07:01 -6.11691 106.65399 37 ft 28 kts 248°
2026-04-23 07:01 -6.11764 106.65214 38 ft 28 kts 248°
2026-04-23 07:01 -6.11835 106.65035 38 ft 27 kts 246°
2026-04-23 07:01 -6.11903 106.64868 36 ft 25 kts 248°
2026-04-23 07:02 -6.11966 106.64711 38 ft 23 kts 248°
2026-04-23 07:02 -6.12024 106.64563 38 ft 22 kts 249°
2026-04-23 07:02 -6.12081 106.64419 38 ft 22 kts 248°
2026-04-23 07:02 -6.12138 106.64280 38 ft 21 kts 248°
2026-04-23 07:03 -6.12192 106.64144 38 ft 21 kts 248°
2026-04-23 07:03 -6.12242 106.64022 38 ft 16 kts 249°
2026-04-23 07:03 -6.12252 106.63933 39 ft 13 kts 289°
2026-04-23 07:03 -6.12185 106.63887 40 ft 12 kts
2026-04-23 07:04 -6.12120 106.63920 40 ft 10 kts 35°
2026-04-23 07:04 -6.12070 106.63966 39 ft 10 kts 57°
2026-04-23 07:04 -6.12056 106.63995 37 ft 0 kts 66°
2026-04-23 07:05 -6.12053 106.64003 38 ft 5 kts 67°
2026-04-23 07:05 -6.11972 106.64201 39 ft 66 kts 68°
2026-04-23 07:05 -6.11717 106.64844 43 ft 130 kts 69°
2026-04-23 07:05 -6.11301 106.65850 102 ft 177 kts 67°
2026-04-23 07:06 -6.10812 106.67028 749 ft 184 kts 68°
2026-04-23 07:06 -6.10312 106.68179 1701 ft 171 kts 54°
2026-04-23 07:06 -6.09360 106.68933 2348 ft 188 kts 28°
2026-04-23 07:06 -6.08130 106.69618 2633 ft 216 kts 30°
2026-04-23 07:07 -6.06763 106.70414 2988 ft 234 kts 31°
2026-04-23 07:07 -6.05258 106.71124 3383 ft 253 kts 12°
2026-04-23 07:07 -6.03473 106.70884 3839 ft 270 kts 334°
2026-04-23 07:07 -6.02008 106.69685 4660 ft 274 kts 315°
2026-04-23 07:08 -6.00683 106.68295 5464 ft 277 kts 314°
2026-04-23 07:08 -5.99355 106.66877 6283 ft 281 kts 313°
2026-04-23 07:08 -5.98014 106.65444 7044 ft 283 kts 313°
2026-04-23 07:08 -5.96653 106.63995 7822 ft 286 kts 313°
2026-04-23 07:09 -5.95289 106.62531 8602 ft 288 kts 313°
2026-04-23 07:09 -5.93910 106.61059 9378 ft 291 kts 313°
2026-04-23 07:09 -5.92510 106.59576 10084 ft 294 kts 313°
2026-04-23 07:09 -5.91065 106.58054 10451 ft 312 kts 314°
2026-04-23 07:10 -5.89513 106.56428 10696 ft 330 kts 314°
2026-04-23 07:10 -5.87923 106.54769 11235 ft 337 kts 314°
2026-04-23 07:10 -5.86271 106.53050 11940 ft 338 kts 314°
2026-04-23 07:10 -5.84650 106.51366 12596 ft 341 kts 314°
2026-04-23 07:11 -5.82993 106.49646 13254 ft 344 kts 314°
2026-04-23 07:11 -5.81315 106.47907 13833 ft 349 kts 314°
2026-04-23 07:11 -5.79619 106.46150 14408 ft 352 kts 314°
2026-04-23 07:12 -5.76190 106.42598 15549 ft 357 kts 314°
2026-04-23 07:12 -5.74451 106.40798 16111 ft 360 kts 314°
2026-04-23 07:12 -5.72701 106.38986 16670 ft 363 kts 314°
2026-04-23 07:12 -5.70933 106.37155 17224 ft 366 kts 314°
2026-04-23 07:13 -5.69153 106.35312 17790 ft 369 kts 315°
2026-04-23 07:13 -5.67357 106.33453 18288 ft 372 kts 315°
2026-04-23 07:13 -5.65545 106.31578 18736 ft 376 kts 315°
2026-04-23 07:13 -5.63716 106.29684 19171 ft 380 kts 315°
2026-04-23 07:14 -5.61868 106.27773 19624 ft 383 kts 314°
2026-04-23 07:14 -5.60008 106.25848 20068 ft 386 kts 315°
2026-04-23 07:14 -5.58131 106.23905 20514 ft 389 kts 315°
2026-04-23 07:14 -5.56240 106.21949 20946 ft 392 kts 314°
2026-04-23 07:15 -5.54331 106.19975 21364 ft 396 kts 315°
2026-04-23 07:15 -5.52408 106.17986 21783 ft 399 kts 314°
2026-04-23 07:15 -5.50471 106.15982 22182 ft 402 kts 315°
2026-04-23 07:15 -5.48513 106.13957 22597 ft 405 kts 314°
2026-04-23 07:16 -5.46544 106.11921 22991 ft 408 kts 315°
2026-04-23 07:16 -5.44559 106.09868 23375 ft 412 kts 314°
2026-04-23 07:16 -5.42557 106.07798 23713 ft 414 kts 314°
2026-04-23 07:16 -5.40574 106.05748 24069 ft 415 kts 314°
2026-04-23 07:17 -5.38560 106.03666 24430 ft 417 kts 314°
2026-04-23 07:17 -5.36539 106.01577 24794 ft 418 kts 314°
2026-04-23 07:17 -5.34510 105.99480 25146 ft 420 kts 314°
2026-04-23 07:17 -5.32472 105.97374 25481 ft 421 kts 314°
2026-04-23 07:18 -5.30426 105.95260 25817 ft 423 kts 314°
2026-04-23 07:18 -5.28373 105.93138 26162 ft 424 kts 314°
2026-04-23 07:18 -5.26312 105.91009 26482 ft 426 kts 314°
2026-04-23 07:18 -5.24246 105.88874 26795 ft 428 kts 314°
2026-04-23 07:19 -5.22160 105.86719 27102 ft 430 kts 314°
2026-04-23 07:19 -5.20071 105.84563 27434 ft 432 kts 314°
2026-04-23 07:19 -5.17883 105.82499 27730 ft 434 kts 322°
2026-04-23 07:19 -5.15455 105.80696 28036 ft 435 kts 324°
2026-04-23 07:20 -5.12976 105.78948 28342 ft 437 kts 325°
2026-04-23 07:20 -5.10472 105.77208 28622 ft 439 kts 325°
2026-04-23 07:20 -5.07956 105.75459 28878 ft 441 kts 325°
2026-04-23 07:20 -5.05435 105.73695 29161 ft 443 kts 325°
2026-04-23 07:21 -5.02913 105.71919 29454 ft 444 kts 324°
2026-04-23 07:21 -5.00387 105.70131 29752 ft 445 kts 324°
2026-04-23 07:21 -4.97856 105.68334 29982 ft 447 kts 324°
2026-04-23 07:21 -4.95313 105.66527 30185 ft 449 kts 324°
2026-04-23 07:22 -4.92790 105.64732 30393 ft 450 kts 324°
2026-04-23 07:22 -4.90232 105.62913 30625 ft 451 kts 324°
2026-04-23 07:22 -4.87669 105.61090 30865 ft 452 kts 325°
2026-04-23 07:22 -4.85097 105.59262 31063 ft 454 kts 325°
2026-04-23 07:23 -4.82514 105.57426 31247 ft 456 kts 325°
2026-04-23 07:23 -4.79919 105.55582 31436 ft 458 kts 325°
2026-04-23 07:23 -4.77316 105.53733 31635 ft 459 kts 325°
2026-04-23 07:23 -4.74706 105.51878 31836 ft 460 kts 325°
2026-04-23 07:24 -4.72093 105.50022 32040 ft 462 kts 325°
2026-04-23 07:24 -4.69470 105.48158 32240 ft 462 kts 325°
2026-04-23 07:24 -4.66845 105.46294 32487 ft 462 kts 325°
2026-04-23 07:24 -4.64221 105.44431 32739 ft 462 kts 325°
2026-04-23 07:25 -4.61599 105.42569 32996 ft 462 kts 325°
2026-04-23 07:25 -4.58984 105.40712 33289 ft 460 kts 325°
2026-04-23 07:25 -4.56375 105.38859 33591 ft 459 kts 325°
2026-04-23 07:25 -4.53770 105.37010 33857 ft 458 kts 325°
2026-04-23 07:26 -4.51157 105.35156 34084 ft 458 kts 325°
2026-04-23 07:26 -4.48559 105.33311 34280 ft 458 kts 325°
2026-04-23 07:26 -4.45993 105.31490 34499 ft 458 kts 325°
2026-04-23 07:26 -4.43358 105.29620 34705 ft 458 kts 325°
2026-04-23 07:27 -4.40793 105.27800 34886 ft 458 kts 325°
2026-04-23 07:27 -4.38194 105.25956 35101 ft 458 kts 325°
2026-04-23 07:27 -4.35594 105.24111 35306 ft 458 kts 325°
2026-04-23 07:27 -4.32994 105.22267 35511 ft 457 kts 325°
2026-04-23 07:28 -4.30401 105.20427 35712 ft 457 kts 325°
2026-04-23 07:28 -4.25181 105.16725 35796 ft 462 kts 326°
2026-04-23 07:29 -4.19935 105.13003 35797 ft 461 kts 325°
2026-04-23 07:29 -4.14718 105.09302 35802 ft 459 kts 326°
2026-04-23 07:30 -4.09543 105.05588 35803 ft 457 kts 322°
2026-04-23 07:30 -4.04824 105.01333 35803 ft 456 kts 317°
2026-04-23 07:31 -4.00244 104.96939 35811 ft 456 kts 317°
2026-04-23 07:31 -3.95651 104.92564 35808 ft 456 kts 317°
2026-04-23 07:32 -3.91057 104.88243 35810 ft 457 kts 318°
2026-04-23 07:32 -3.86380 104.83867 35815 ft 458 kts 318°
2026-04-23 07:33 -3.81741 104.79532 35814 ft 460 kts 318°
2026-04-23 07:33 -3.77062 104.75157 35818 ft 461 kts 318°
2026-04-23 07:34 -3.72367 104.70767 35811 ft 462 kts 318°
2026-04-23 07:34 -3.67667 104.66372 35812 ft 463 kts 318°
2026-04-23 07:35 -3.62958 104.61970 35810 ft 463 kts 318°
2026-04-23 07:35 -3.58245 104.57565 35811 ft 463 kts 318°
2026-04-23 07:36 -3.53532 104.53160 35813 ft 463 kts 318°
2026-04-23 07:36 -3.48823 104.48760 35814 ft 463 kts 318°
2026-04-23 07:37 -3.44118 104.44364 35812 ft 463 kts 318°
2026-04-23 07:37 -3.39418 104.39973 35813 ft 462 kts 318°
2026-04-23 07:38 -3.34720 104.35586 35815 ft 461 kts 318°
2026-04-23 07:38 -3.30038 104.31213 35812 ft 461 kts 318°
2026-04-23 07:39 -3.25351 104.26836 35812 ft 460 kts 318°
2026-04-23 07:39 -3.20673 104.22470 35813 ft 460 kts 318°
2026-04-23 07:40 -3.15998 104.18104 35816 ft 459 kts 318°
2026-04-23 07:40 -3.11325 104.13743 35814 ft 459 kts 318°
2026-04-23 07:41 -3.06651 104.09381 35812 ft 460 kts 318°
2026-04-23 07:41 -3.02006 104.05047 35815 ft 460 kts 318°
2026-04-23 07:42 -2.97329 104.00683 35815 ft 460 kts 318°
2026-04-23 07:42 -2.92649 103.96317 35816 ft 460 kts 318°
2026-04-23 07:43 -2.87962 103.91945 35818 ft 461 kts 318°
2026-04-23 07:43 -2.83277 103.87575 35816 ft 461 kts 318°
2026-04-23 07:44 -2.79377 103.83937 35818 ft 461 kts 318°
2026-04-23 07:44 -2.74687 103.79564 35813 ft 461 kts 318°
2026-04-23 07:45 -2.69995 103.75189 35812 ft 461 kts 318°
2026-04-23 07:45 -2.65303 103.70815 35813 ft 461 kts 318°
2026-04-23 07:46 -2.60610 103.66439 35814 ft 461 kts 318°
2026-04-23 07:46 -2.55913 103.62060 35814 ft 461 kts 318°
2026-04-23 07:47 -2.51218 103.57685 35813 ft 461 kts 318°
2026-04-23 07:47 -2.46524 103.53310 35810 ft 461 kts 318°
2026-04-23 07:48 -2.41830 103.48935 35812 ft 461 kts 318°
2026-04-23 07:48 -2.37141 103.44564 35808 ft 461 kts 318°
2026-04-23 07:49 -2.32477 103.40219 35811 ft 461 kts 318°
2026-04-23 07:49 -2.27764 103.35821 35807 ft 461 kts 317°
2026-04-23 07:50 -2.23126 103.31488 35809 ft 460 kts 317°
2026-04-23 07:50 -2.18421 103.27092 35810 ft 460 kts 317°
2026-04-23 07:51 -2.13742 103.22721 35812 ft 460 kts 317°
2026-04-23 07:51 -2.09069 103.18357 35808 ft 460 kts 317°
2026-04-23 07:52 -2.04421 103.14017 35809 ft 459 kts 317°
2026-04-23 07:52 -1.99747 103.09652 35803 ft 459 kts 317°
2026-04-23 07:53 -1.95075 103.05290 35806 ft 459 kts 317°
2026-04-23 07:53 -1.90406 103.00930 35807 ft 460 kts 317°
2026-04-23 07:54 -1.85730 102.96565 35805 ft 460 kts 317°
2026-04-23 07:54 -1.81056 102.92201 35807 ft 460 kts 317°
2026-04-23 07:55 -1.76371 102.87828 35808 ft 461 kts 317°
2026-04-23 07:55 -1.71679 102.83449 35802 ft 462 kts 317°
2026-04-23 07:56 -1.66983 102.79064 35807 ft 462 kts 317°
2026-04-23 07:56 -1.62279 102.74673 35809 ft 463 kts 317°
2026-04-23 07:57 -1.57584 102.70341 35802 ft 463 kts 322°
2026-04-23 07:57 -1.54836 102.68701 35806 ft 460 kts 339°
2026-04-23 07:57 -1.51799 102.67705 35820 ft 460 kts 344°
2026-04-23 07:58 -1.45643 102.65969 35807 ft 460 kts 345°
2026-04-23 07:58 -1.39473 102.64237 35807 ft 460 kts 344°
2026-04-23 07:59 -1.33318 102.62452 35811 ft 461 kts 344°
2026-04-23 07:59 -1.27166 102.60640 35812 ft 461 kts 344°
2026-04-23 08:00 -1.21003 102.58820 35809 ft 462 kts 344°
2026-04-23 08:00 -1.14842 102.57003 35809 ft 462 kts 344°
2026-04-23 08:01 -1.08669 102.55184 35815 ft 463 kts 344°
2026-04-23 08:01 -1.02490 102.53363 35806 ft 463 kts 344°
2026-04-23 08:02 -0.96306 102.51541 35812 ft 464 kts 344°
2026-04-23 08:02 -0.90118 102.49717 35813 ft 464 kts 344°
2026-04-23 08:03 -0.83913 102.47889 35805 ft 465 kts 344°
2026-04-23 08:03 -0.80801 102.46972 35448 ft 472 kts 343°
2026-04-23 08:03 -0.77639 102.46041 34862 ft 473 kts 343°
2026-04-23 08:03 -0.74483 102.45111 34249 ft 473 kts 343°
2026-04-23 08:04 -0.71316 102.44178 33537 ft 476 kts 343°
2026-04-23 08:04 -0.68136 102.43240 32802 ft 477 kts 343°
2026-04-23 08:04 -0.64990 102.42313 32127 ft 477 kts 343°
2026-04-23 08:04 -0.61819 102.41379 31641 ft 473 kts 343°
2026-04-23 08:05 -0.58675 102.40452 31136 ft 469 kts 342°
2026-04-23 08:05 -0.55686 102.39200 30621 ft 465 kts 327°
2026-04-23 08:05 -0.53179 102.37209 30186 ft 459 kts 315°
2026-04-23 08:05 -0.50907 102.34985 29651 ft 456 kts 314°
2026-04-23 08:06 -0.48676 102.32747 29113 ft 452 kts 314°
2026-04-23 08:06 -0.46464 102.30533 28608 ft 448 kts 314°
2026-04-23 08:06 -0.44258 102.28349 28091 ft 444 kts 314°
2026-04-23 08:06 -0.42061 102.26198 27603 ft 440 kts 315°
2026-04-23 08:07 -0.39881 102.24078 27114 ft 436 kts 315°
2026-04-23 08:07 -0.37710 102.21972 26641 ft 433 kts 315°
2026-04-23 08:07 -0.35558 102.19886 26165 ft 429 kts 315°
2026-04-23 08:07 -0.33424 102.17815 25692 ft 426 kts 315°
2026-04-23 08:08 -0.31305 102.15760 25210 ft 424 kts 315°
2026-04-23 08:08 -0.29197 102.13714 24735 ft 421 kts 315°
2026-04-23 08:08 -0.27101 102.11683 24277 ft 418 kts 315°
2026-04-23 08:08 -0.25019 102.09669 23825 ft 416 kts 315°
2026-04-23 08:09 -0.22945 102.07664 23350 ft 414 kts 315°
2026-04-23 08:09 -0.20880 102.05666 22803 ft 412 kts 315°
2026-04-23 08:09 -0.18830 102.03683 22313 ft 408 kts 316°
2026-04-23 08:09 -0.16800 102.01719 21835 ft 405 kts 316°
2026-04-23 08:10 -0.14788 101.99771 21374 ft 401 kts 316°
2026-04-23 08:10 -0.12792 101.97838 20917 ft 398 kts 316°
2026-04-23 08:10 -0.08846 101.94020 20017 ft 392 kts 316°
2026-04-23 08:11 -0.06892 101.92128 19564 ft 390 kts 316°
2026-04-23 08:11 -0.04975 101.90270 19110 ft 388 kts 316°
2026-04-23 08:11 -0.03019 101.88374 18652 ft 386 kts 316°
2026-04-23 08:11 -0.01119 101.86532 18213 ft 385 kts 316°
2026-04-23 08:12 0.00798 101.84675 17723 ft 383 kts 316°
2026-04-23 08:12 0.02704 101.82827 17249 ft 380 kts 316°
2026-04-23 08:12 0.04594 101.80995 16805 ft 377 kts 316°
2026-04-23 08:12 0.06471 101.79176 16359 ft 374 kts 315°
2026-04-23 08:13 0.08327 101.77378 15931 ft 371 kts 316°
2026-04-23 08:13 0.10304 101.75718 15408 ft 371 kts 325°
2026-04-23 08:13 0.12480 101.74316 14886 ft 372 kts 328°
2026-04-23 08:13 0.14691 101.72966 14324 ft 373 kts 328°
2026-04-23 08:14 0.16907 101.71607 13766 ft 374 kts 328°
2026-04-23 08:14 0.19117 101.70228 13171 ft 376 kts 327°
2026-04-23 08:14 0.21322 101.68831 12595 ft 375 kts 327°
2026-04-23 08:14 0.23520 101.67426 12031 ft 374 kts 327°
2026-04-23 08:15 0.25704 101.66027 11473 ft 373 kts 327°
2026-04-23 08:15 0.27882 101.64631 10948 ft 371 kts 327°
2026-04-23 08:15 0.30028 101.63258 10663 ft 362 kts 327°
2026-04-23 08:15 0.32142 101.61909 10260 ft 358 kts 327°
2026-04-23 08:16 0.34225 101.60579 9949 ft 351 kts 327°
2026-04-23 08:16 0.36234 101.59298 9953 ft 335 kts 327°
2026-04-23 08:16 0.38177 101.58160 9873 ft 323 kts 338°
2026-04-23 08:16 0.40347 101.57681 9794 ft 311 kts 356°
2026-04-23 08:17 0.42442 101.57620 9722 ft 300 kts 359°
2026-04-23 08:17 0.44492 101.57603 9635 ft 291 kts 359°
2026-04-23 08:17 0.46494 101.57586 9441 ft 285 kts 359°
2026-04-23 08:17 0.48482 101.57559 9096 ft 286 kts 359°
2026-04-23 08:18 0.50465 101.57523 8811 ft 284 kts 359°
2026-04-23 08:18 0.52437 101.57482 8542 ft 283 kts 358°
2026-04-23 08:18 0.54386 101.57441 8166 ft 278 kts 359°
2026-04-23 08:18 0.56324 101.57364 7663 ft 279 kts 354°
2026-04-23 08:19 0.58250 101.57150 7238 ft 278 kts 353°
2026-04-23 08:19 0.60160 101.56912 6825 ft 275 kts 353°
2026-04-23 08:19 0.62055 101.56683 6422 ft 273 kts 353°
2026-04-23 08:19 0.63939 101.56461 6003 ft 272 kts 353°
2026-04-23 08:20 0.65725 101.55911 5534 ft 270 kts 327°
2026-04-23 08:20 0.67026 101.54597 5102 ft 267 kts 299°
2026-04-23 08:20 0.67632 101.52870 4689 ft 263 kts 278°
2026-04-23 08:20 0.67858 101.51068 4291 ft 261 kts 276°
2026-04-23 08:21 0.68059 101.49282 3964 ft 256 kts 275°
2026-04-23 08:21 0.67924 101.47555 3682 ft 248 kts 249°
2026-04-23 08:21 0.67002 101.46144 3450 ft 243 kts 221°
2026-04-23 08:21 0.65571 101.45294 3246 ft 237 kts 197°
2026-04-23 08:22 0.63979 101.44996 3001 ft 229 kts 186°
2026-04-23 08:22 0.62422 101.44863 2763 ft 221 kts 183°
2026-04-23 08:22 0.60917 101.44823 2525 ft 212 kts 180°
2026-04-23 08:22 0.59473 101.44802 2290 ft 201 kts 181°
2026-04-23 08:23 0.58133 101.44775 2112 ft 185 kts 181°
2026-04-23 08:23 0.56928 101.44747 1954 ft 165 kts 181°
2026-04-23 08:23 0.55816 101.44718 1757 ft 157 kts 181°
2026-04-23 08:23 0.54724 101.44691 1573 ft 158 kts 181°
2026-04-23 08:24 0.53627 101.44663 1380 ft 158 kts 181°
2026-04-23 08:24 0.52530 101.44633 1186 ft 158 kts 181°
2026-04-23 08:24 0.51436 101.44602 988 ft 157 kts 181°
2026-04-23 08:24 0.50348 101.44571 809 ft 156 kts 180°
2026-04-23 08:25 0.49268 101.44541 611 ft 155 kts 180°
2026-04-23 08:25 0.48180 101.44509 382 ft 157 kts 180°
2026-04-23 08:25 0.47087 101.44481 175 ft 155 kts 179°
2026-04-23 08:25 0.46093 101.44453 127 ft 121 kts 182°
2026-04-23 08:26 0.45466 101.44433 122 ft 59 kts 182°
2026-04-23 08:26 0.45196 101.44429 121 ft 21 kts 175°
2026-04-23 08:26 0.45125 101.44446 122 ft 1 kts 189°
2026-04-23 08:26 0.45118 101.44441 122 ft 2 kts 219°
2026-04-23 08:27 0.45118 101.44421 118 ft 4 kts 299°
2026-04-23 08:27 0.45148 101.44417 120 ft 6 kts
2026-04-23 08:27 0.45203 101.44421 121 ft 10 kts
2026-04-23 08:27 0.45283 101.44426 120 ft 13 kts
2026-04-23 08:28 0.45384 101.44430 121 ft 16 kts
2026-04-23 08:28 0.45502 101.44433 122 ft 18 kts
2026-04-23 08:28 0.45638 101.44436 121 ft 20 kts
2026-04-23 08:28 0.45786 101.44442 123 ft 22 kts
2026-04-23 08:29 0.45942 101.44446 127 ft 23 kts
2026-04-23 08:29 0.46104 101.44450 128 ft 23 kts
2026-04-23 08:29 0.46260 101.44454 134 ft 21 kts
2026-04-23 08:29 0.46366 101.44462 136 ft 11 kts 22°
2026-04-23 08:30 0.46389 101.44519 138 ft 7 kts 69°
2026-04-23 08:30 0.46401 101.44563 138 ft 7 kts 90°
2026-04-23 08:30 0.46400 101.44606 138 ft 6 kts 92°
2026-04-23 08:30 0.46399 101.44640 139 ft 4 kts 91°
2026-04-23 08:31 0.46398 101.44669 139 ft 4 kts 91°
2026-04-23 08:31 0.46398 101.44682 138 ft 0 kts 91°